OE5HMR-13 Weather Reports


time (UTC)temp
C
wind
direction
speed
KPH
gust
KPH
rain 1hr
cm
rain 24hr
cm
rain mn
cm
humidity
%
barometer
mb
20260504011612 8 0.0 0.0 0.00 0.00 0.00 56 1012.4
20260504010533 8 0.0 0.0 0.00 0.00 0.00 55 1012.4
20260504005537 8 0.0 0.0 0.00 0.00 0.00 55 1012.4
20260504004533 9 0.0 0.0 0.00 0.00 0.00 56 1012.4
20260504003553 9 0.0 0.0 0.00 0.00 0.00 55 1012.4
20260504002549 9 0.0 0.0 0.00 0.00 0.00 55 1012.4
20260504001541 10 0.0 0.0 0.00 0.00 0.00 54 1012.4
20260504000555 10 0.0 0.0 0.00 0.00 0.00 54 1012.4
20260503235537 10 0.0 0.0 0.00 0.00 0.00 53 1012.4
20260503234535 10 0.0 0.0 0.00 0.00 0.00 52 1012.4
20260503233550 10 0.0 0.0 0.00 0.00 0.00 52 1012.4
20260503232539 11 0.0 0.0 0.00 0.00 0.00 50 1012.4
20260503231531 11 0.0 0.0 0.00 0.00 0.00 50 1012.4
20260503230615 11 0.0 0.0 0.00 0.00 0.00 49 1012.4
20260503225552 11 0.0 0.0 0.00 0.00 0.00 49 1012.4
20260503224537 11 0.0 0.0 0.00 0.00 0.00 49 1012.4
20260503223530 12 0.0 0.0 0.00 0.00 0.00 48 1012.4
20260503222533 12 0.0 0.0 0.00 0.00 0.00 48 1012.4
20260503221535 12 0.0 0.0 0.00 0.00 0.00 47 1012.4
20260503220551 12 0.0 0.0 0.00 0.00 0.00 47 1012.4
20260503215533 12 0.0 0.0 0.00 0.00 0.00 47 1013.4
20260503214555 12 0.0 0.0 0.00 0.00 0.00 46 1013.3
20260503213536 12 0.0 0.0 0.00 0.00 0.00 45 1012.4
20260503212531 12 0.0 0.0 0.00 0.00 0.00 44 1012.4
20260503211536 12 0.0 0.0 0.00 0.00 0.00 43 1012.5
20260503210553 13 0.0 0.0 0.00 0.00 0.00 42 1013.4
20260503205539 13 0.0 0.0 0.00 0.00 0.00 41 1013.4
20260503204534 13 0.0 0.0 0.00 0.00 0.00 41 1013.4
20260503203540 14 0.0 0.0 0.00 0.00 0.00 40 1013.4
20260503202548 15 0.0 0.0 0.00 0.00 0.00 39 1013.4
20260503201530 15 0.0 0.0 0.00 0.00 0.00 38 1013.4
20260503200532 15 0.0 0.0 0.00 0.00 0.00 38 1013.4
20260503195532 15 0.0 0.0 0.00 0.00 0.00 38 1013.4
20260503194535 15 0.0 0.0 0.00 0.00 0.00 38 1013.4
20260503193543 15 0.0 0.0 0.00 0.00 0.00 38 1013.4
20260503192542 15 0.0 0.0 0.00 0.00 0.00 38 1013.4
20260503191538 15 0.0 0.0 0.00 0.00 0.00 38 1013.4
20260503190536 16 0.0 0.0 0.00 0.00 0.00 37 1013.4
20260503185535 16 0.0 0.0 0.00 0.00 0.00 36 1013.4
20260503184535 16 0.0 0.0 0.00 0.00 0.00 35 1013.4
20260503183558 16 0.0 0.0 0.00 0.00 0.00 34 1013.4
20260503182541 17 0.0 0.0 0.00 0.00 0.00 33 1013.4
20260503181531 18 0.0 0.0 0.00 0.00 0.00 31 1013.4
20260503180539 18 0.0 0.0 0.00 0.00 0.00 31 1013.4
20260503175534 19 0.0 0.0 0.00 0.00 0.00 30 1013.4
20260503174529 20 0.0 0.0 0.00 0.00 0.00 30 1013.4
20260503173537 20 0.0 0.0 0.00 0.00 0.00 29 1013.4
20260503172529 21 0.0 0.0 0.00 0.00 0.00 28 1013.4
20260503171535 21 0.0 0.0 0.00 0.00 0.00 28 1013.4
20260503170542 22 0.0 0.0 0.00 0.00 0.00 28 1013.4
20260503150555 25 0.0 0.0 0.00 0.00 0.00 16 1014.5
20260503130549 25 0.0 0.0 0.00 0.00 0.00 16 1015.6
20260503110548 24 0.0 0.0 0.00 0.00 0.00 26 1015.6
20260503081536 20 0.0 0.0 0.00 0.00 0.00 37 1016.7
20260503080533 20 0.0 0.0 0.00 0.00 0.00 36 1016.7
20260503072531 18 0.0 0.0 0.00 0.00 0.00 46 1015.6
20260503071540 17 0.0 0.0 0.00 0.00 0.00 48 1015.8
20260503070542 16 0.0 0.0 0.00 0.00 0.00 51 1016.7
20260503054541 7 0.0 0.0 0.00 0.00 0.00 61 1015.6
20260503053540 7 0.0 0.0 0.00 0.00 0.00 61 1015.6
20260503052606 6 0.0 0.0 0.00 0.00 0.00 61 1015.6
20260503051603 6 0.0 0.0 0.00 0.00 0.00 62 1015.8
20260503050555 5 0.0 0.0 0.00 0.00 0.00 62 1016.7
20260503045539 4 0.0 0.0 0.00 0.00 0.00 62 1016.7
20260503044533 3 0.0 0.0 0.00 0.00 0.00 61 1016.7
20260503043534 3 0.0 0.0 0.00 0.00 0.00 60 1016.7
20260503042554 3 0.0 0.0 0.00 0.00 0.00 60 1016.7
20260503041557 2 0.0 0.0 0.00 0.00 0.00 60 1016.7
20260503040548 2 0.0 0.0 0.00 0.00 0.00 61 1016.7
20260503035556 2 0.0 0.0 0.00 0.00 0.00 60 1016.7
20260503034548 2 0.0 0.0 0.00 0.00 0.00 59 1016.7
20260503033543 2 0.0 0.0 0.00 0.00 0.00 59 1016.7
20260503032533 2 0.0 0.0 0.00 0.00 0.00 59 1016.7
20260503031536 3 0.0 0.0 0.00 0.00 0.00 59 1016.7
20260503030632 3 0.0 0.0 0.00 0.00 0.00 59 1016.7
20260503025600 3 0.0 0.0 0.00 0.00 0.00 59 1016.7
20260503024558 3 0.0 0.0 0.00 0.00 0.00 60 1016.7
20260503023530 3 0.0 0.0 0.00 0.00 0.00 60 1016.7
20260503022534 3 0.0 0.0 0.00 0.00 0.00 59 1016.7
20260503021551 3 0.0 0.0 0.00 0.00 0.00 60 1016.7
20260503020541 3 0.0 0.0 0.00 0.00 0.00 60 1016.7
20260503015529 3 0.0 0.0 0.00 0.00 0.00 60 1016.7
20260503014538 3 0.0 0.0 0.00 0.00 0.00 60 1016.7
20260503013532 3 0.0 0.0 0.00 0.00 0.00 59 1016.7
20260503012540 3 0.0 0.0 0.00 0.00 0.00 59 1016.7